Weather Roundup
Issued by NWS

Home | Current Version | Previous Version | Graphics & Text | Print | Product List | Glossary Off
Versions: 1 2 3 4 5 6 7 8 9 10 11 12 13 14 15 16 17 18 19 20 21 22 23 24 25 26 27 28 29 30 31 32 33 34 35 36 37 38 39 40 41 42 43 44 45 46 47 48 49 50

442
NZUS93 KARX 301710
HRRWXR

CURRENT HOURLY OBSERVATIONS ACROSS
MUCH OF THE UPPER MISSISSIPPI VALLEY
NATIONAL WEATHER SERVICE LA CROSSE WI
1200 PM CDT MON MAY 30 2016


...SOUTHEAST MINNESOTA...


CITY           SKY/WX    TMP DP  RH WIND       PRES   REMARKS
ROCHESTER      SUNNY     78  54  43 SE12      30.03F
ROCHESTER/MAYO FAIR      77  48  35 S5        30.03S
WINONA         SUNNY     79  52  38 S3        30.02F
AUSTIN         SUNNY     75  54  46 S9        30.02F
ALBERT LEA     SUNNY     79  54  41 S9        30.01F
DODGE CENTER   SUNNY     77  46  33 SW8       30.03S
PRESTON        CLOUDY    75  50  40 S9        30.05F
OWATONNA       SUNNY     79  50  36 S13       30.01F
FARIBAULT      SUNNY     77  57  50 S7        30.02S
$$

...ELSEWHERE IN MINNESOTA...


CITY           SKY/WX    TMP DP  RH WIND       PRES   REMARKS
MINNEAPOLIS    PTSUNNY   79  51  37 S10       30.00S
INTNL FALLS    SUNNY     72  55  55 N8        29.95S
DULUTH         MOSUNNY   77  45  32 W16       29.97S
RED WING       SUNNY     79  50  36 S8        30.00S
REDWOOD FALLS  MOSUNNY   78  50  37 S15       29.97F
MANKATO        MOSUNNY   79  52  38 S12       30.00S
WORTHINGTON    SUNNY     75  56  51 S14G21    30.00F
FAIRMONT       SUNNY     75  52  43 SE14      29.99F
$$

...SOUTHWEST WISCONSIN...


CITY           SKY/WX    TMP DP  RH WIND       PRES   REMARKS
LA CROSSE      SUNNY     80  51  36 S8        30.02F
PRAIRIE DU CHI MOSUNNY   78  44  29 SE5       30.04F
BOSCOBEL       MOSUNNY   80  48  32 VRB3      30.04F
LONE ROCK      SUNNY     79  48  33 VRB5      30.05F
PLATTEVILLE    MOSUNNY   78  46  32 W6        30.07F
FORT MC COY    SUNNY     77  50  38 CALM      30.05S
CAMP DOUGLAS   MOSUNNY   76  58  53 SW5       30.04S
MAUSTON-NEW LI MOSUNNY   76  55  47 W6        30.04S
VIROQUA        FAIR      77  43  29 CALM      30.06F
WIS DELLS      SUNNY     77  36  22 N3        30.05S
$$

...ELSEWHERE IN WISCONSIN...


CITY           SKY/WX    TMP DP  RH WIND       PRES   REMARKS
MILWAUKEE      PTSUNNY   80  58  46 VRB7      30.02S
MADISON        MOSUNNY   77  54  44 VRB7      30.04S
GREEN BAY      SUNNY     77  52  41 W8        30.00F
EAU CLAIRE     SUNNY     78  50  37 W3        30.01S
BLACK RVR FLS  FAIR      78  50  37 CALM      30.03S
MEDFORD        CLOUDY    72  52  48 SW8       30.03S
WAUSAU         SUNNY     76  48  37 NW8       30.01S
WIS RAPIDS     SUNNY     78  44  29 NW12      30.04F
MARSHFIELD     SUNNY     76  49  38 W9        30.03F
RICE LAKE      MOSUNNY   76  50  39 SW9       30.02F
$$

...NORTHEAST IOWA...


CITY           SKY/WX    TMP DP  RH WIND       PRES   REMARKS
WATERLOO       SUNNY     74  59  59 S9        30.01F
DUBUQUE        CLOUDY    77  53  43 NW7       30.08F
DECORAH        CLOUDY    77  52  41 S7        30.03F
MASON CITY     SUNNY     76  57  51 SE13      30.04F
CHARLES CITY   SUNNY     77  54  44 SE12      30.04S
OELWEIN        CLOUDY    75  54  46 SE14G20   30.03R
$$

...ELSEWHERE IN IOWA...


CITY           SKY/WX    TMP DP  RH WIND       PRES   REMARKS
DES MOINES     MOSUNNY   83  62  49 SE7       29.99F
IOWA CITY      SUNNY     79  62  56 NE12      30.06F
FORT DODGE     SUNNY     79  55  44 SE13G18   30.00F
MARSHALLTOWN   SUNNY     78  54  43 SE20G29   30.01F
CEDAR RAPIDS   SUNNY     77  60  55 E14       30.04F
$$

...NORTHERN ILLINOIS...


CITY           SKY/WX    TMP DP  RH WIND       PRES   REMARKS
CHICAGO-OHARE  MOSUNNY   80  60  50 W10       30.02F
CHICAGO-MIDWAY MOSUNNY   83  58  42 W13       30.01F
MOLINE         MOSUNNY   81  60  48 N8        30.03F
ROCKFORD       MOSUNNY   82  58  43 NW9       30.05F
PEORIA         MOSUNNY   83  61  47 NW8       30.04F
$$

NOTE: "FAIR" INDICATES FEW OR NO CLOUDS BELOW 12,000 FEET WITH NO
SIGNIFICANT WEATHER AND/OR OBSTRUCTIONS TO VISIBILITY. WIND
SPEEDS ARE IN MILES-PER-HOUR.




USA.gov is the U.S. government's official web portal to all federal, state and local government web resources and services.